• In Czech Republic
  • List of Countries
  • For 7 days
  • Water Temperature
  • Satellite Maps
  • Weather Map
  • Weather Widgets
  • user-avatar
    Login

    Hourly Weather Maçka

    Today, 22 September, Saturday

    Time Temperature Precipitation Wind Pressure Humidity
    00:00 +20°C° 0.2 mm 1 mps 722 mmHg 87%
    01:00 +20°C° 0.1 mm 1 mps 722 mmHg 86%
    02:00 +20°C° 0.1 mm 1 mps 722 mmHg 85%
    03:00 +18°C° 0.1 mm 0 mps 722 mmHg 84%
    04:00 +18°C° 0 mm 0 mps 722 mmHg 83%
    05:00 +17°C° 0 mm 0 mps 722 mmHg 82%
    06:00 +19°C° 0 mm 1 mps 721 mmHg 82%
    07:00 +21°C° 0 mm 1 mps 722 mmHg 75%
    08:00 +23°C° 0 mm 1 mps 722 mmHg 69%
    09:00 +24°C° 0 mm 1 mps 722 mmHg 62%
    10:00 +25°C° 0.1 mm 1 mps 722 mmHg 60%
    11:00 +26°C° 0.1 mm 1 mps 722 mmHg 57%
    12:00 +27°C° 0.1 mm 2 mps 722 mmHg 55%
    13:00 +27°C° 0.2 mm 2 mps 722 mmHg 56%
    14:00 +27°C° 0.2 mm 2 mps 721 mmHg 58%
    15:00 +27°C° 0.2 mm 2 mps 721 mmHg 60%
    16:00 +26°C° 0.1 mm 1 mps 721 mmHg 66%
    17:00 +25°C° 0.1 mm 1 mps 721 mmHg 73%
    18:00 +24°C° 0.1 mm 1 mps 721 mmHg 79%
    19:00 +23°C° 0 mm 1 mps 721 mmHg 83%
    20:00 +22°C° 0 mm 1 mps 721 mmHg 86%
    21:00 +21°C° 0 mm 1 mps 722 mmHg 90%
    22:00 +21°C° 0 mm 1 mps 722 mmHg 89%
    23:00 +21°C° 0 mm 1 mps 722 mmHg 89%

    Tomorrow, 23 September, Sunday

    Time Temperature Precipitation Wind Pressure Humidity
    00:00 +20°C° 0 mm 1 mps 722 mmHg 88%
    01:00 +20°C° 0 mm 1 mps 722 mmHg 87%
    02:00 +19°C° 0 mm 1 mps 722 mmHg 87%
    03:00 +19°C° 0 mm 1 mps 722 mmHg 87%
    04:00 +19°C° 0 mm 1 mps 722 mmHg 87%
    05:00 +19°C° 0 mm 1 mps 722 mmHg 87%
    06:00 +18°C° 0 mm 1 mps 722 mmHg 87%
    07:00 +20°C° 0 mm 1 mps 722 mmHg 81%
    08:00 +22°C° 0 mm 1 mps 723 mmHg 75%
    09:00 +24°C° 0 mm 1 mps 723 mmHg 69%
    10:00 +24°C° 0 mm 2 mps 723 mmHg 65%
    11:00 +25°C° 0 mm 2 mps 723 mmHg 62%
    12:00 +26°C° 0 mm 3 mps 723 mmHg 59%
    13:00 +26°C° 0 mm 3 mps 723 mmHg 59%
    14:00 +26°C° 0 mm 3 mps 723 mmHg 60%
    15:00 +26°C° 0 mm 3 mps 723 mmHg 60%
    16:00 +24°C° 0 mm 3 mps 723 mmHg 66%
    17:00 +23°C° 0 mm 2 mps 723 mmHg 71%
    18:00 +21°C° 0 mm 2 mps 723 mmHg 76%
    19:00 +20°C° 0 mm 2 mps 724 mmHg 75%
    20:00 +19°C° 0 mm 3 mps 724 mmHg 75%
    21:00 +19°C° 0 mm 3 mps 725 mmHg 75%
    22:00 +18°C° 0 mm 3 mps 725 mmHg 70%
    23:00 +18°C° 0 mm 3 mps 725 mmHg 66%

    Day after tomorrow, 24 September, Monday

    Time Temperature Precipitation Wind Pressure Humidity
    00:00 +18°C° 0 mm 3 mps 725 mmHg 62%
    01:00 +17°C° 0 mm 3 mps 725 mmHg 60%
    02:00 +17°C° 0 mm 2 mps 725 mmHg 58%
    03:00 +17°C° 0 mm 2 mps 725 mmHg 57%
    04:00 +17°C° 0 mm 2 mps 725 mmHg 57%
    05:00 +17°C° 0 mm 2 mps 724 mmHg 56%
    06:00 +16°C° 0 mm 2 mps 724 mmHg 56%
    07:00 +18°C° 0 mm 2 mps 725 mmHg 52%
    08:00 +22°C° 0 mm 1 mps 725 mmHg 47%
    09:00 +24°C° 0 mm 1 mps 725 mmHg 42%
    10:00 +25°C° 0 mm 1 mps 724 mmHg 40%
    11:00 +26°C° 0 mm 1 mps 724 mmHg 38%
    12:00 +27°C° 0 mm 2 mps 724 mmHg 36%
    13:00 +27°C° 0 mm 2 mps 723 mmHg 38%
    14:00 +27°C° 0 mm 2 mps 723 mmHg 40%
    15:00 +27°C° 0 mm 2 mps 723 mmHg 41%
    16:00 +26°C° 0 mm 2 mps 722 mmHg 49%
    17:00 +25°C° 0 mm 2 mps 722 mmHg 56%
    18:00 +23°C° 0 mm 2 mps 721 mmHg 64%
    19:00 +23°C° 0 mm 2 mps 721 mmHg 64%
    20:00 +21°C° 0 mm 2 mps 721 mmHg 64%
    21:00 +21°C° 0 mm 2 mps 721 mmHg 64%
    22:00 +21°C° 0 mm 2 mps 721 mmHg 62%
    23:00 +20°C° 0 mm 2 mps 721 mmHg 59%

    25 September, Tuesday

    Time Temperature Precipitation Wind Pressure Humidity
    00:00 +20°C° 0 mm 2 mps 720 mmHg 57%
    01:00 +20°C° 0 mm 2 mps 720 mmHg 56%
    02:00 +20°C° 0 mm 2 mps 720 mmHg 55%
    03:00 +20°C° 0 mm 2 mps 720 mmHg 53%
    04:00 +20°C° 0 mm 2 mps 720 mmHg 53%
    05:00 +20°C° 0 mm 2 mps 720 mmHg 53%
    06:00 +19°C° 0 mm 2 mps 720 mmHg 53%
    07:00 +23°C° 0 mm 2 mps 720 mmHg 49%
    08:00 +25°C° 0 mm 1 mps 721 mmHg 44%
    09:00 +27°C° 0 mm 1 mps 721 mmHg 40%
    10:00 +27°C° 0 mm 2 mps 721 mmHg 41%
    11:00 +28°C° 0 mm 3 mps 721 mmHg 42%
    12:00 +28°C° 0 mm 4 mps 721 mmHg 44%
    13:00 +28°C° 0 mm 4 mps 721 mmHg 48%
    14:00 +27°C° 0 mm 4 mps 721 mmHg 53%
    15:00 +27°C° 0 mm 4 mps 721 mmHg 57%
    16:00 +26°C° 0 mm 4 mps 721 mmHg 66%
    17:00 +23°C° 0 mm 4 mps 721 mmHg 75%
    18:00 +22°C° 0 mm 3 mps 721 mmHg 84%
    19:00 +21°C° 0.5 mm 4 mps 722 mmHg 86%
    20:00 +20°C° 0.5 mm 4 mps 723 mmHg 87%
    21:00 +20°C° 0.5 mm 4 mps 723 mmHg 89%
    22:00 +19°C° 1 mm 5 mps 723 mmHg 91%
    23:00 +19°C° 1 mm 5 mps 724 mmHg 92%

    26 September, Wednesday

    Time Temperature Precipitation Wind Pressure Humidity
    00:00 +17°C° 1 mm 5 mps 724 mmHg 94%
    01:00 +18°C° 0.4 mm 4 mps 724 mmHg 94%
    02:00 +17°C° 0.4 mm 4 mps 724 mmHg 94%
    03:00 +17°C° 0.4 mm 3 mps 724 mmHg 94%
    04:00 +17°C° 0.5 mm 3 mps 724 mmHg 94%
    05:00 +17°C° 0.5 mm 2 mps 724 mmHg 94%
    06:00 +17°C° 0.5 mm 2 mps 724 mmHg 94%
    07:00 +17°C° 0.4 mm 2 mps 724 mmHg 94%
    08:00 +16°C° 0.4 mm 2 mps 724 mmHg 94%
    09:00 +16°C° 0.4 mm 1 mps 724 mmHg 94%
    10:00 +17°C° 0.3 mm 2 mps 723 mmHg 92%
    11:00 +17°C° 0.3 mm 2 mps 723 mmHg 90%
    12:00 +17°C° 0.3 mm 2 mps 723 mmHg 89%
    13:00 +17°C° 0.2 mm 2 mps 722 mmHg 87%
    14:00 +18°C° 0.2 mm 2 mps 722 mmHg 86%
    15:00 +18°C° 0.2 mm 2 mps 722 mmHg 84%
    16:00 +17°C° 0.7 mm 3 mps 722 mmHg 86%
    17:00 +17°C° 0.7 mm 4 mps 722 mmHg 88%
    18:00 +15°C° 0.7 mm 5 mps 722 mmHg 91%
    19:00 +15°C° 0.9 mm 4 mps 722 mmHg 91%
    20:00 +14°C° 0.9 mm 4 mps 722 mmHg 92%
    21:00 +14°C° 0.9 mm 4 mps 723 mmHg 93%
    22:00 +13°C° 1 mm 4 mps 722 mmHg 93%
    23:00 +13°C° 1 mm 3 mps 722 mmHg 92%

    27 September, Thursday

    Time Temperature Precipitation Wind Pressure Humidity
    00:00 +13°C° 1 mm 3 mps 722 mmHg 92%
    01:00 +13°C° 1.1 mm 3 mps 721 mmHg 93%
    02:00 +13°C° 1.1 mm 3 mps 721 mmHg 93%
    03:00 +12°C° 1.1 mm 3 mps 721 mmHg 93%
    04:00 +12°C° 0.8 mm 3 mps 720 mmHg 94%
    05:00 +12°C° 0.8 mm 3 mps 720 mmHg 94%
    06:00 +12°C° 0.8 mm 3 mps 720 mmHg 94%
    07:00 +12°C° 1.1 mm 3 mps 719 mmHg 93%
    08:00 +12°C° 1.1 mm 3 mps 719 mmHg 92%
    09:00 +13°C° 1.1 mm 3 mps 719 mmHg 91%
    10:00 +13°C° 0.7 mm 4 mps 719 mmHg 90%
    11:00 +13°C° 0.7 mm 4 mps 718 mmHg 89%
    12:00 +13°C° 0.7 mm 4 mps 718 mmHg 88%
    13:00 +13°C° 0.3 mm 4 mps 718 mmHg 88%
    14:00 +13°C° 0.3 mm 4 mps 717 mmHg 89%
    15:00 +13°C° 0.3 mm 4 mps 717 mmHg 89%
    16:00 +13°C° 0.2 mm 4 mps 717 mmHg 89%
    17:00 +13°C° 0.2 mm 4 mps 717 mmHg 89%
    18:00 +13°C° 0.2 mm 4 mps 718 mmHg 89%
    19:00 +13°C° 0.1 mm 3 mps 718 mmHg 90%
    20:00 +13°C° 0.1 mm 3 mps 718 mmHg 90%
    21:00 +13°C° 0.1 mm 3 mps 719 mmHg 90%
    22:00 +13°C° 0.1 mm 3 mps 718 mmHg 89%
    23:00 +14°C° 0.1 mm 2 mps 718 mmHg 89%
    Show more